Tracking 28792 objects as of 25-Apr-2024
HD Live streaming from Space Station
objects crossing your sky now

STARLINK-31612

Track STARLINK-31612 now!
10-day predictions
STARLINK-31612 is classified as:


NORAD ID: 59337
Int'l Code: 2024-057T
Perigee: 450.4 km
Apogee: 452.1 km
Inclination: 43.0 °
Period: 93.5 minutes
Semi major axis: 6822 km
RCS: Unknown
Launch date: March 25, 2024
Source: United States (US)
Launch site: AIR FORCE EASTERN TEST RANGE (AFETR)
Your satellite tracking list
Your tracking list is empty




NASA's NSSDC Master Catalog

Two Line Element Set (TLE):
1 59337U 24057T   24115.91667824  .00006624  00000-0  16578-3 0  9999
2 59337  42.9996 136.0633 0001238 286.7707 198.9051 15.40686183  5977
Source of the keplerian elements: AFSPC